Year,Month,Day,Hour,Minute,Value (Times are PST for temperature in C)
2007,04,23,00,00,6.70
2007,04,23,00,01,6.70
2007,04,23,00,02,6.60
2007,04,23,00,03,6.60
2007,04,23,00,04,6.60
2007,04,23,00,05,6.60
2007,04,23,00,06,6.60
2007,04,23,00,07,6.60
2007,04,23,00,08,6.70
2007,04,23,00,09,6.70
2007,04,23,00,10,6.70
2007,04,23,00,11,6.70
2007,04,23,00,12,6.70
2007,04,23,00,13,6.70
2007,04,23,00,14,6.70
2007,04,23,00,15,6.70
2007,04,23,00,16,6.70
2007,04,23,00,17,6.70
2007,04,23,00,18,6.70
2007,04,23,00,19,6.70
2007,04,23,00,20,6.60
2007,04,23,00,21,6.60
2007,04,23,00,22,6.60
2007,04,23,00,23,6.60
2007,04,23,00,24,6.60
2007,04,23,00,25,6.60
2007,04,23,00,26,6.60
2007,04,23,00,27,6.60
2007,04,23,00,28,6.60
2007,04,23,00,29,6.60
2007,04,23,00,30,6.60
2007,04,23,00,31,6.60
2007,04,23,00,32,6.50
2007,04,23,00,33,6.40
2007,04,23,00,34,6.40
2007,04,23,00,35,6.40
2007,04,23,00,36,6.40
2007,04,23,00,37,6.40
2007,04,23,00,38,6.40
2007,04,23,00,39,6.40
2007,04,23,00,40,6.30
2007,04,23,00,41,6.30
2007,04,23,00,42,6.30
2007,04,23,00,43,6.30
2007,04,23,00,44,6.20
2007,04,23,00,45,6.20
2007,04,23,00,46,6.20
2007,04,23,00,47,6.20
2007,04,23,00,48,6.20
2007,04,23,00,49,6.20
2007,04,23,00,50,6.20
2007,04,23,00,51,6.20
2007,04,23,00,52,6.20
2007,04,23,00,53,6.20
2007,04,23,00,54,6.20
2007,04,23,00,55,6.20
2007,04,23,00,56,6.20
2007,04,23,00,57,6.10
2007,04,23,00,58,6.10
2007,04,23,00,59,6.10
2007,04,23,01,00,6.00
2007,04,23,01,01,6.00
2007,04,23,01,02,6.00
2007,04,23,01,03,5.90
2007,04,23,01,04,5.90
2007,04,23,01,05,5.90
2007,04,23,01,06,5.90
2007,04,23,01,07,5.80
2007,04,23,01,08,5.80
2007,04,23,01,09,5.80
2007,04,23,01,10,5.80
2007,04,23,01,11,5.70
2007,04,23,01,12,5.70
2007,04,23,01,13,5.70
2007,04,23,01,14,5.70
2007,04,23,01,15,5.70
2007,04,23,01,16,5.70
2007,04,23,01,17,5.70
2007,04,23,01,18,5.70
2007,04,23,01,19,5.70
2007,04,23,01,20,5.70
2007,04,23,01,21,5.60
2007,04,23,01,22,5.60
2007,04,23,01,23,5.60
2007,04,23,01,24,5.60
2007,04,23,01,25,5.50
2007,04,23,01,26,5.50
2007,04,23,01,27,5.50
2007,04,23,01,28,5.50
2007,04,23,01,29,5.50
2007,04,23,01,30,5.50
2007,04,23,01,31,5.40
2007,04,23,01,32,5.40
2007,04,23,01,33,5.40
2007,04,23,01,34,5.40
2007,04,23,01,35,5.40
2007,04,23,01,36,5.30
2007,04,23,01,37,5.30
2007,04,23,01,38,5.30
2007,04,23,01,39,5.30
2007,04,23,01,40,5.30
2007,04,23,01,41,5.30
2007,04,23,01,42,5.30
2007,04,23,01,43,5.30
2007,04,23,01,44,5.30
2007,04,23,01,45,5.20
2007,04,23,01,46,5.20
2007,04,23,01,47,5.20
2007,04,23,01,48,5.20
2007,04,23,01,49,5.20
2007,04,23,01,50,5.20
2007,04,23,01,51,5.20
2007,04,23,01,52,5.20
2007,04,23,01,53,5.20
2007,04,23,01,54,5.20
2007,04,23,01,55,5.10
2007,04,23,01,56,5.10
2007,04,23,01,57,5.10
2007,04,23,01,58,5.10
2007,04,23,01,59,5.10
2007,04,23,02,00,5.10
2007,04,23,02,01,5.10
2007,04,23,02,02,5.10
2007,04,23,02,03,5.10
2007,04,23,02,04,5.10
2007,04,23,02,05,5.10
2007,04,23,02,06,5.10
2007,04,23,02,07,5.10
2007,04,23,02,08,5.10
2007,04,23,02,09,4.90
2007,04,23,02,10,4.90
2007,04,23,02,11,4.90
2007,04,23,02,12,4.90
2007,04,23,02,13,4.90
2007,04,23,02,14,4.90
2007,04,23,02,15,4.90
2007,04,23,02,16,4.90
2007,04,23,02,17,4.90
2007,04,23,02,18,4.90
2007,04,23,02,19,4.90
2007,04,23,02,20,4.90
2007,04,23,02,21,4.90
2007,04,23,02,22,4.90
2007,04,23,02,23,4.90
2007,04,23,02,24,4.90
2007,04,23,02,25,4.90
2007,04,23,02,26,4.90
2007,04,23,02,27,4.90
2007,04,23,02,28,4.90
2007,04,23,02,29,4.90
2007,04,23,02,30,4.90
2007,04,23,02,31,4.90
2007,04,23,02,32,4.90
2007,04,23,02,33,4.90
2007,04,23,02,34,4.90
2007,04,23,02,35,4.80
2007,04,23,02,36,4.80
2007,04,23,02,37,4.80
2007,04,23,02,38,4.80
2007,04,23,02,39,4.70
2007,04,23,02,40,4.70
2007,04,23,02,41,4.60
2007,04,23,02,42,4.60
2007,04,23,02,43,4.60
2007,04,23,02,44,4.60
2007,04,23,02,45,4.60
2007,04,23,02,46,4.60
2007,04,23,02,47,4.60
2007,04,23,02,48,4.60
2007,04,23,02,49,4.60
2007,04,23,02,50,4.60
2007,04,23,02,51,4.60
2007,04,23,02,52,4.60
2007,04,23,02,53,4.60
2007,04,23,02,54,4.50
2007,04,23,02,55,4.50
2007,04,23,02,56,4.50
2007,04,23,02,57,4.50
2007,04,23,02,58,4.50
2007,04,23,02,59,4.50
2007,04,23,03,00,4.50
2007,04,23,03,01,4.40
2007,04,23,03,02,4.40
2007,04,23,03,03,4.40
2007,04,23,03,04,4.40
2007,04,23,03,05,4.40
2007,04,23,03,06,4.40
2007,04,23,03,07,4.30
2007,04,23,03,08,4.30
2007,04,23,03,09,4.30
2007,04,23,03,10,4.40
2007,04,23,03,11,4.40
2007,04,23,03,12,4.40
2007,04,23,03,13,4.40
2007,04,23,03,14,4.40
2007,04,23,03,15,4.40
2007,04,23,03,16,4.40
2007,04,23,03,17,4.40
2007,04,23,03,18,4.40
2007,04,23,03,19,4.40
2007,04,23,03,20,4.40
2007,04,23,03,21,4.40
2007,04,23,03,22,4.30
2007,04,23,03,23,4.30
2007,04,23,03,24,4.30
2007,04,23,03,25,4.30
2007,04,23,03,26,4.30
2007,04,23,03,27,4.30
2007,04,23,03,28,4.30
2007,04,23,03,29,4.20
2007,04,23,03,30,4.20
2007,04,23,03,31,4.20
2007,04,23,03,32,4.20
2007,04,23,03,33,4.20
2007,04,23,03,34,4.20
2007,04,23,03,35,4.20
2007,04,23,03,36,4.20
2007,04,23,03,37,4.20
2007,04,23,03,38,4.20
2007,04,23,03,39,4.20
2007,04,23,03,40,4.20
2007,04,23,03,41,4.20
2007,04,23,03,42,4.20
2007,04,23,03,43,4.20
2007,04,23,03,44,4.20
2007,04,23,03,45,4.10
2007,04,23,03,46,4.10
2007,04,23,03,47,4.10
2007,04,23,03,48,4.10
2007,04,23,03,49,4.10
2007,04,23,03,50,4.10
2007,04,23,03,51,4.10
2007,04,23,03,52,4.10
2007,04,23,03,53,4.10
2007,04,23,03,54,4.00
2007,04,23,03,55,4.00
2007,04,23,03,56,4.00
2007,04,23,03,57,4.00
2007,04,23,03,58,4.00
2007,04,23,03,59,4.00
2007,04,23,04,00,3.90
2007,04,23,04,01,3.90
2007,04,23,04,02,3.90
2007,04,23,04,03,3.80
2007,04,23,04,04,3.80
2007,04,23,04,05,3.80
2007,04,23,04,06,3.80
2007,04,23,04,07,3.80
2007,04,23,04,08,3.80
2007,04,23,04,09,3.80
2007,04,23,04,10,3.80
2007,04,23,04,11,3.80
2007,04,23,04,12,3.80
2007,04,23,04,13,3.80
2007,04,23,04,14,3.80
2007,04,23,04,15,3.80
2007,04,23,04,16,3.80
2007,04,23,04,17,3.80
2007,04,23,04,18,3.80
2007,04,23,04,19,3.80
2007,04,23,04,20,3.80
2007,04,23,04,21,3.80
2007,04,23,04,22,3.80
2007,04,23,04,23,3.80
2007,04,23,04,24,3.80
2007,04,23,04,25,3.80
2007,04,23,04,26,3.80
2007,04,23,04,27,3.80
2007,04,23,04,28,3.80
2007,04,23,04,29,3.80
2007,04,23,04,30,3.70
2007,04,23,04,31,3.70
2007,04,23,04,32,3.70
2007,04,23,04,33,3.70
2007,04,23,04,34,3.60
2007,04,23,04,35,3.60
2007,04,23,04,36,3.60
2007,04,23,04,37,3.50
2007,04,23,04,38,3.50
2007,04,23,04,39,3.50
2007,04,23,04,40,3.50
2007,04,23,04,41,3.40
2007,04,23,04,42,3.40
2007,04,23,04,43,3.40
2007,04,23,04,44,3.40
2007,04,23,04,45,3.40
2007,04,23,04,46,3.40
2007,04,23,04,47,3.40
2007,04,23,04,48,3.40
2007,04,23,04,49,3.40
2007,04,23,04,50,3.40
2007,04,23,04,51,3.40
2007,04,23,04,52,3.40
2007,04,23,04,53,3.40
2007,04,23,04,54,3.40
2007,04,23,04,55,3.40
2007,04,23,04,56,3.40
2007,04,23,04,57,3.40
2007,04,23,04,58,3.40
2007,04,23,04,59,3.40
2007,04,23,05,00,3.30
2007,04,23,05,01,3.30
2007,04,23,05,02,3.30
2007,04,23,05,03,3.30
2007,04,23,05,04,3.30
2007,04,23,05,05,3.30
2007,04,23,05,06,3.30
2007,04,23,05,07,3.30
2007,04,23,05,08,3.30
2007,04,23,05,09,3.30
2007,04,23,05,10,3.30
2007,04,23,05,11,3.30
2007,04,23,05,12,3.30
2007,04,23,05,13,3.30
2007,04,23,05,14,3.30
2007,04,23,05,15,3.30
2007,04,23,05,16,3.30
2007,04,23,05,17,3.30
2007,04,23,05,18,3.30
2007,04,23,05,19,3.30
2007,04,23,05,20,3.30
2007,04,23,05,21,3.30
2007,04,23,05,22,3.30
2007,04,23,05,23,3.30
2007,04,23,05,24,3.30
2007,04,23,05,25,3.30
2007,04,23,05,26,3.30
2007,04,23,05,27,3.30
2007,04,23,05,28,3.30
2007,04,23,05,29,3.30
2007,04,23,05,30,3.30
2007,04,23,05,31,3.30
2007,04,23,05,32,3.30
2007,04,23,05,33,3.30
2007,04,23,05,34,3.30
2007,04,23,05,35,3.30
2007,04,23,05,36,3.30
2007,04,23,05,37,3.30
2007,04,23,05,38,3.30
2007,04,23,05,39,3.30
2007,04,23,05,40,3.30
2007,04,23,05,41,3.30
2007,04,23,05,42,3.30
2007,04,23,05,43,3.30
2007,04,23,05,44,3.30
2007,04,23,05,45,3.30
2007,04,23,05,46,3.30
2007,04,23,05,47,3.30
2007,04,23,05,48,3.30
2007,04,23,05,49,3.40
2007,04,23,05,50,3.40
2007,04,23,05,51,3.40
2007,04,23,05,52,3.40
2007,04,23,05,53,3.40
2007,04,23,05,54,3.40
2007,04,23,05,55,3.50
2007,04,23,05,56,3.50
2007,04,23,05,57,3.50
2007,04,23,05,58,3.50
2007,04,23,05,59,3.50
2007,04,23,06,00,3.60
2007,04,23,06,01,3.60
2007,04,23,06,02,3.60
2007,04,23,06,03,3.60
2007,04,23,06,04,3.60
2007,04,23,06,05,3.60
2007,04,23,06,06,3.60
2007,04,23,06,07,3.70
2007,04,23,06,08,3.70
2007,04,23,06,09,3.70
2007,04,23,06,10,3.70
2007,04,23,06,11,3.70
2007,04,23,06,12,3.70
2007,04,23,06,13,3.70
2007,04,23,06,14,3.80
2007,04,23,06,15,3.80
2007,04,23,06,16,3.80
2007,04,23,06,17,3.80
2007,04,23,06,18,3.80
2007,04,23,06,19,3.80
2007,04,23,06,20,3.80
2007,04,23,06,21,3.80
2007,04,23,06,22,3.80
2007,04,23,06,23,3.80
2007,04,23,06,24,3.80
2007,04,23,06,25,3.80
2007,04,23,06,26,3.80
2007,04,23,06,27,3.80
2007,04,23,06,28,3.80
2007,04,23,06,29,3.80
2007,04,23,06,30,3.80
2007,04,23,06,31,3.80
2007,04,23,06,32,3.80
2007,04,23,06,33,3.80
2007,04,23,06,34,3.80
2007,04,23,06,35,3.80
2007,04,23,06,36,3.80
2007,04,23,06,37,3.80
2007,04,23,06,38,3.80
2007,04,23,06,39,3.80
2007,04,23,06,40,3.80
2007,04,23,06,41,3.90
2007,04,23,06,42,3.90
2007,04,23,06,43,3.90
2007,04,23,06,44,4.00
2007,04,23,06,45,4.00
2007,04,23,06,46,4.00
2007,04,23,06,47,4.00
2007,04,23,06,48,4.00
2007,04,23,06,49,4.10
2007,04,23,06,50,4.10
2007,04,23,06,51,4.10
2007,04,23,06,52,4.10
2007,04,23,06,53,4.10
2007,04,23,06,54,4.10
2007,04,23,06,55,4.10
2007,04,23,06,56,4.20
2007,04,23,06,57,4.20
2007,04,23,06,58,4.20
2007,04,23,06,59,4.20
2007,04,23,07,00,4.20
2007,04,23,07,01,4.20
2007,04,23,07,02,4.30
2007,04,23,07,03,4.30
2007,04,23,07,04,4.40
2007,04,23,07,05,4.40
2007,04,23,07,06,4.50
2007,04,23,07,07,4.50
2007,04,23,07,08,4.50
2007,04,23,07,09,4.60
2007,04,23,07,10,4.60
2007,04,23,07,11,4.60
2007,04,23,07,12,4.60
2007,04,23,07,13,4.60
2007,04,23,07,14,4.60
2007,04,23,07,15,4.60
2007,04,23,07,16,4.70
2007,04,23,07,17,4.70
2007,04,23,07,18,4.70
2007,04,23,07,19,4.80
2007,04,23,07,20,4.80
2007,04,23,07,21,4.90
2007,04,23,07,22,4.90
2007,04,23,07,23,4.90
2007,04,23,07,24,4.90
2007,04,23,07,25,4.90
2007,04,23,07,26,5.00
2007,04,23,07,27,5.10
2007,04,23,07,28,5.10
2007,04,23,07,29,5.10
2007,04,23,07,30,5.30
2007,04,23,07,31,5.30
2007,04,23,07,32,5.40
2007,04,23,07,33,5.50
2007,04,23,07,34,5.60
2007,04,23,07,35,5.60
2007,04,23,07,36,5.70
2007,04,23,07,37,5.80
2007,04,23,07,38,5.90
2007,04,23,07,39,5.90
2007,04,23,07,40,6.00
2007,04,23,07,41,6.10
2007,04,23,07,42,6.10
2007,04,23,07,43,6.20
2007,04,23,07,44,6.20
2007,04,23,07,45,6.20
2007,04,23,07,46,6.20
2007,04,23,07,47,6.20
2007,04,23,07,48,6.30
2007,04,23,07,49,6.30
2007,04,23,07,50,6.40
2007,04,23,07,51,6.40
2007,04,23,07,52,6.40
2007,04,23,07,53,6.40
2007,04,23,07,54,6.40
2007,04,23,07,55,6.50
2007,04,23,07,56,6.60
2007,04,23,07,57,6.60
2007,04,23,07,58,6.70
2007,04,23,07,59,6.70
2007,04,23,08,00,6.70
2007,04,23,08,01,6.70
2007,04,23,08,02,6.80
2007,04,23,08,03,6.80
2007,04,23,08,04,6.80
2007,04,23,08,05,6.80
2007,04,23,08,06,6.80
2007,04,23,08,07,6.80
2007,04,23,08,08,6.80
2007,04,23,08,09,6.90
2007,04,23,08,10,6.90
2007,04,23,08,11,6.90
2007,04,23,08,12,6.90
2007,04,23,08,13,6.90
2007,04,23,08,14,6.90
2007,04,23,08,15,6.90
2007,04,23,08,16,6.90
2007,04,23,08,17,6.90
2007,04,23,08,18,7.00
2007,04,23,08,19,7.00
2007,04,23,08,20,7.00
2007,04,23,08,21,7.10
2007,04,23,08,22,7.10
2007,04,23,08,23,7.20
2007,04,23,08,24,7.20
2007,04,23,08,25,7.30
2007,04,23,08,26,7.30
2007,04,23,08,27,7.40
2007,04,23,08,28,7.50
2007,04,23,08,29,7.60
2007,04,23,08,30,7.60
2007,04,23,08,31,7.70
2007,04,23,08,32,7.80
2007,04,23,08,33,7.90
2007,04,23,08,34,8.00
2007,04,23,08,35,8.10
2007,04,23,08,36,8.20
2007,04,23,08,37,8.40
2007,04,23,08,38,8.50
2007,04,23,08,39,8.60
2007,04,23,08,40,8.70
2007,04,23,08,41,8.70
2007,04,23,08,42,8.80
2007,04,23,08,43,8.80
2007,04,23,08,44,8.80
2007,04,23,08,45,8.90
2007,04,23,08,46,9.00
2007,04,23,08,47,9.00
2007,04,23,08,48,9.00
2007,04,23,08,49,9.10
2007,04,23,08,50,9.20
2007,04,23,08,51,9.20
2007,04,23,08,52,9.20
2007,04,23,08,53,9.20
2007,04,23,08,54,9.30
2007,04,23,08,55,9.30
2007,04,23,08,56,9.40
2007,04,23,08,57,9.40
2007,04,23,08,58,9.50
2007,04,23,08,59,9.60
2007,04,23,09,00,9.60
2007,04,23,09,01,9.70
2007,04,23,09,02,9.70
2007,04,23,09,03,9.70
2007,04,23,09,04,9.60
2007,04,23,09,05,9.60
2007,04,23,09,06,9.60
2007,04,23,09,07,9.60
2007,04,23,09,08,9.60
2007,04,23,09,09,9.70
2007,04,23,09,10,9.70
2007,04,23,09,11,9.70
2007,04,23,09,12,9.70
2007,04,23,09,13,9.70
2007,04,23,09,14,9.70
2007,04,23,09,15,9.70
2007,04,23,09,16,9.70
2007,04,23,09,17,9.80
2007,04,23,09,18,9.80
2007,04,23,09,19,9.90
2007,04,23,09,20,9.90
2007,04,23,09,21,9.90
2007,04,23,09,22,9.90
2007,04,23,09,23,9.90
2007,04,23,09,24,9.90
2007,04,23,09,25,10.10
2007,04,23,09,26,10.10
2007,04,23,09,27,10.20
2007,04,23,09,28,10.40
2007,04,23,09,29,10.40
2007,04,23,09,30,10.60
2007,04,23,09,31,10.70
2007,04,23,09,32,10.80
2007,04,23,09,33,10.80
2007,04,23,09,34,10.90
2007,04,23,09,35,10.90
2007,04,23,09,36,10.90
2007,04,23,09,37,10.90
2007,04,23,09,38,10.90
2007,04,23,09,39,10.90
2007,04,23,09,40,11.00
2007,04,23,09,41,11.10
2007,04,23,09,42,11.10
2007,04,23,09,43,11.10
2007,04,23,09,44,11.10
2007,04,23,09,45,11.10
2007,04,23,09,46,11.10
2007,04,23,09,47,11.10
2007,04,23,09,48,11.20
2007,04,23,09,49,11.20
2007,04,23,09,50,11.20
2007,04,23,09,51,11.20
2007,04,23,09,52,11.30
2007,04,23,09,53,11.20
2007,04,23,09,54,11.20
2007,04,23,09,55,11.20
2007,04,23,09,56,11.20
2007,04,23,09,57,11.20
2007,04,23,09,58,11.20
2007,04,23,09,59,11.20
2007,04,23,10,00,11.20
2007,04,23,10,01,11.20
2007,04,23,10,02,11.20
2007,04,23,10,03,11.10
2007,04,23,10,04,11.10
2007,04,23,10,05,11.10
2007,04,23,10,06,11.10
2007,04,23,10,07,11.10
2007,04,23,10,08,11.10
2007,04,23,10,09,11.10
2007,04,23,10,10,11.10
2007,04,23,10,11,11.10
2007,04,23,10,12,11.10
2007,04,23,10,13,11.20
2007,04,23,10,14,11.20
2007,04,23,10,15,11.20
2007,04,23,10,16,11.20
2007,04,23,10,17,11.20
2007,04,23,10,18,11.20
2007,04,23,10,19,11.20
2007,04,23,10,20,11.20
2007,04,23,10,21,11.20
2007,04,23,10,22,11.30
2007,04,23,10,23,11.30
2007,04,23,10,24,11.30
2007,04,23,10,25,11.30
2007,04,23,10,26,11.30
2007,04,23,10,27,11.30
2007,04,23,10,28,11.30
2007,04,23,10,29,11.30
2007,04,23,10,30,11.30
2007,04,23,10,31,11.30
2007,04,23,10,32,11.40
2007,04,23,10,33,11.40
2007,04,23,10,34,11.50
2007,04,23,10,35,11.60
2007,04,23,10,36,11.60
2007,04,23,10,37,11.70
2007,04,23,10,38,11.80
2007,04,23,10,39,11.80
2007,04,23,10,40,11.90
2007,04,23,10,41,11.90
2007,04,23,10,42,11.80
2007,04,23,10,43,11.90
2007,04,23,10,44,11.90
2007,04,23,10,45,11.90
2007,04,23,10,46,11.90
2007,04,23,10,47,11.90
2007,04,23,10,48,11.90
2007,04,23,10,49,11.90
2007,04,23,10,50,11.90
2007,04,23,10,51,12.00
2007,04,23,10,52,11.90
2007,04,23,10,53,12.00
2007,04,23,10,54,12.00
2007,04,23,10,55,12.10
2007,04,23,10,56,12.20
2007,04,23,10,57,12.20
2007,04,23,10,58,12.30
2007,04,23,10,59,12.40
2007,04,23,11,00,12.50
2007,04,23,11,01,12.60
2007,04,23,11,02,12.60
2007,04,23,11,03,12.40
2007,04,23,11,04,12.30
2007,04,23,11,05,12.30
2007,04,23,11,06,12.20
2007,04,23,11,07,12.20
2007,04,23,11,08,12.20
2007,04,23,11,09,12.10
2007,04,23,11,10,12.00
2007,04,23,11,11,12.00
2007,04,23,11,12,12.00
2007,04,23,11,13,11.90
2007,04,23,11,14,12.00
2007,04,23,11,15,12.00
2007,04,23,11,16,12.10
2007,04,23,11,17,12.10
2007,04,23,11,18,12.20
2007,04,23,11,19,12.20
2007,04,23,11,20,12.30
2007,04,23,11,21,12.30
2007,04,23,11,22,12.30
2007,04,23,11,23,12.40
2007,04,23,11,24,12.40
2007,04,23,11,25,12.50
2007,04,23,11,26,12.50
2007,04,23,11,27,12.50
2007,04,23,11,28,12.40
2007,04,23,11,29,12.50
2007,04,23,11,30,12.50
2007,04,23,11,31,12.50
2007,04,23,11,32,12.60
2007,04,23,11,33,12.50
2007,04,23,11,34,12.50
2007,04,23,11,35,12.50
2007,04,23,11,36,12.50
2007,04,23,11,37,12.50
2007,04,23,11,38,12.60
2007,04,23,11,39,12.70
2007,04,23,11,40,12.80
2007,04,23,11,41,12.80
2007,04,23,11,42,12.80
2007,04,23,11,43,12.80
2007,04,23,11,44,12.70
2007,04,23,11,45,12.60
2007,04,23,11,46,12.60
2007,04,23,11,47,12.50
2007,04,23,11,48,12.40
2007,04,23,11,49,12.40
2007,04,23,11,50,12.40
2007,04,23,11,51,12.30
2007,04,23,11,52,12.30
2007,04,23,11,53,12.30
2007,04,23,11,54,12.30
2007,04,23,11,55,12.30
2007,04,23,11,56,12.20
2007,04,23,11,57,12.20
2007,04,23,11,58,12.20
2007,04,23,11,59,12.30
2007,04,23,12,00,12.40
2007,04,23,12,01,12.40
2007,04,23,12,02,12.40
2007,04,23,12,03,12.30
2007,04,23,12,04,12.20
2007,04,23,12,05,12.10
2007,04,23,12,06,12.20
2007,04,23,12,07,12.20
2007,04,23,12,08,12.30
2007,04,23,12,09,12.50
2007,04,23,12,10,12.60
2007,04,23,12,11,12.50
2007,04,23,12,12,12.50
2007,04,23,12,13,12.40
2007,04,23,12,14,12.50
2007,04,23,12,15,12.50
2007,04,23,12,16,12.60
2007,04,23,12,17,12.70
2007,04,23,12,18,12.80
2007,04,23,12,19,12.80
2007,04,23,12,20,12.80
2007,04,23,12,21,12.60
2007,04,23,12,22,12.50
2007,04,23,12,23,12.50
2007,04,23,12,24,12.70
2007,04,23,12,25,12.80
2007,04,23,12,26,12.90
2007,04,23,12,27,13.00
2007,04,23,12,28,13.00
2007,04,23,12,29,13.00
2007,04,23,12,30,13.10
2007,04,23,12,31,13.00
2007,04,23,12,32,13.00
2007,04,23,12,33,13.00
2007,04,23,12,34,12.90
2007,04,23,12,35,12.90
2007,04,23,12,36,12.90
2007,04,23,12,37,13.00
2007,04,23,12,38,13.00
2007,04,23,12,39,13.10
2007,04,23,12,40,13.20
2007,04,23,12,41,13.30
2007,04,23,12,42,13.20
2007,04,23,12,43,13.10
2007,04,23,12,44,12.90
2007,04,23,12,45,12.80
2007,04,23,12,46,12.60
2007,04,23,12,47,12.50
2007,04,23,12,48,12.30
2007,04,23,12,49,12.30
2007,04,23,12,50,12.30
2007,04,23,12,51,12.30
2007,04,23,12,52,12.30
2007,04,23,12,53,12.40
2007,04,23,12,54,12.50
2007,04,23,12,55,12.60
2007,04,23,12,56,12.50
2007,04,23,12,57,12.60
2007,04,23,12,58,12.60
2007,04,23,12,59,12.50
2007,04,23,13,00,12.40
2007,04,23,13,01,12.40
2007,04,23,13,02,12.40
2007,04,23,13,03,12.40
2007,04,23,13,04,12.50
2007,04,23,13,05,12.60
2007,04,23,13,06,12.80
2007,04,23,13,07,12.90
2007,04,23,13,08,12.90
2007,04,23,13,09,12.90
2007,04,23,13,10,12.90
2007,04,23,13,11,12.90
2007,04,23,13,12,12.90
2007,04,23,13,13,12.80
2007,04,23,13,14,12.80
2007,04,23,13,15,12.80
2007,04,23,13,16,12.90
2007,04,23,13,17,12.90
2007,04,23,13,18,13.00
2007,04,23,13,19,13.10
2007,04,23,13,20,13.10
2007,04,23,13,21,13.10
2007,04,23,13,22,13.10
2007,04,23,13,23,13.20
2007,04,23,13,24,13.30
2007,04,23,13,25,13.30
2007,04,23,13,26,13.30
2007,04,23,13,27,13.30
2007,04,23,13,28,13.20
2007,04,23,13,29,13.30
2007,04,23,13,30,13.30
2007,04,23,13,31,13.30
2007,04,23,13,32,13.30
2007,04,23,13,33,13.10
2007,04,23,13,34,13.00
2007,04,23,13,35,13.00
2007,04,23,13,36,12.90
2007,04,23,13,37,12.80
2007,04,23,13,38,12.80
2007,04,23,13,39,12.60
2007,04,23,13,40,12.60
2007,04,23,13,41,12.50
2007,04,23,13,42,12.50
2007,04,23,13,43,12.50
2007,04,23,13,44,12.40
2007,04,23,13,45,12.40
2007,04,23,13,46,12.50
2007,04,23,13,47,12.60
2007,04,23,13,48,12.60
2007,04,23,13,49,12.70
2007,04,23,13,50,12.70
2007,04,23,13,51,12.80
2007,04,23,13,52,12.90
2007,04,23,13,53,13.10
2007,04,23,13,54,13.30
2007,04,23,13,55,13.40
2007,04,23,13,56,13.40
2007,04,23,13,57,13.50
2007,04,23,13,58,13.50
2007,04,23,13,59,13.60
2007,04,23,14,00,13.70
2007,04,23,14,01,13.70
2007,04,23,14,02,13.70
2007,04,23,14,03,13.70
2007,04,23,14,04,13.70
2007,04,23,14,05,13.70
2007,04,23,14,06,13.60
2007,04,23,14,07,13.70
2007,04,23,14,08,13.70
2007,04,23,14,09,13.70
2007,04,23,14,10,13.80
2007,04,23,14,11,13.90
2007,04,23,14,12,14.00
2007,04,23,14,13,14.10
2007,04,23,14,14,14.20
2007,04,23,14,15,14.30
2007,04,23,14,16,14.30
2007,04,23,14,17,14.40
2007,04,23,14,18,14.30
2007,04,23,14,19,14.30
2007,04,23,14,20,14.30
2007,04,23,14,21,14.30
2007,04,23,14,22,14.30
2007,04,23,14,23,14.40
2007,04,23,14,24,14.40
2007,04,23,14,25,14.50
2007,04,23,14,26,14.50
2007,04,23,14,27,14.50
2007,04,23,14,28,14.50
2007,04,23,14,29,14.40
2007,04,23,14,30,14.30
2007,04,23,14,31,14.30
2007,04,23,14,32,14.40
2007,04,23,14,33,14.40
2007,04,23,14,34,14.50
2007,04,23,14,35,14.60
2007,04,23,14,36,14.60
2007,04,23,14,37,14.60
2007,04,23,14,38,14.50
2007,04,23,14,39,14.30
2007,04,23,14,40,14.10
2007,04,23,14,41,13.90
2007,04,23,14,42,13.70
2007,04,23,14,43,13.60
2007,04,23,14,44,13.50
2007,04,23,14,45,13.50
2007,04,23,14,46,13.30
2007,04,23,14,47,13.30
2007,04,23,14,48,13.30
2007,04,23,14,49,13.30
2007,04,23,14,50,13.30
2007,04,23,14,51,13.30
2007,04,23,14,52,13.30
2007,04,23,14,53,13.30
2007,04,23,14,54,13.30
2007,04,23,14,55,13.30
2007,04,23,14,56,13.30
2007,04,23,14,57,13.30
2007,04,23,14,58,13.20
2007,04,23,14,59,13.20
2007,04,23,15,00,13.10
2007,04,23,15,01,13.10
2007,04,23,15,02,13.00
2007,04,23,15,03,13.00
2007,04,23,15,04,12.90
2007,04,23,15,05,12.90
2007,04,23,15,06,12.80
2007,04,23,15,07,12.80
2007,04,23,15,08,12.80
2007,04,23,15,09,12.80
2007,04,23,15,10,12.80
2007,04,23,15,11,12.80
2007,04,23,15,12,12.80
2007,04,23,15,13,12.70
2007,04,23,15,14,12.70
2007,04,23,15,15,12.60
2007,04,23,15,16,12.60
2007,04,23,15,17,12.60
2007,04,23,15,18,12.60
2007,04,23,15,19,12.60
2007,04,23,15,20,12.70
2007,04,23,15,21,12.70
2007,04,23,15,22,12.80
2007,04,23,15,23,12.90
2007,04,23,15,24,12.90
2007,04,23,15,25,13.00
2007,04,23,15,26,13.00
2007,04,23,15,27,13.10
2007,04,23,15,28,13.20
2007,04,23,15,29,13.30
2007,04,23,15,30,13.30
2007,04,23,15,31,13.30
2007,04,23,15,32,13.30
2007,04,23,15,33,13.30
2007,04,23,15,34,13.30
2007,04,23,15,35,13.30
2007,04,23,15,36,13.30
2007,04,23,15,37,13.30
2007,04,23,15,38,13.30
2007,04,23,15,39,13.30
2007,04,23,15,40,13.30
2007,04,23,15,41,13.30
2007,04,23,15,42,13.30
2007,04,23,15,43,13.30
2007,04,23,15,44,13.20
2007,04,23,15,45,13.20
2007,04,23,15,46,13.10
2007,04,23,15,47,13.00
2007,04,23,15,48,12.90
2007,04,23,15,49,12.80
2007,04,23,15,50,12.70
2007,04,23,15,51,12.60
2007,04,23,15,52,12.60
2007,04,23,15,53,12.50
2007,04,23,15,54,12.50
2007,04,23,15,55,12.40
2007,04,23,15,56,12.30
2007,04,23,15,57,12.30
2007,04,23,15,58,12.30
2007,04,23,15,59,12.30
2007,04,23,16,00,12.20
2007,04,23,16,01,12.10
2007,04,23,16,02,12.10
2007,04,23,16,03,12.00
2007,04,23,16,04,11.90
2007,04,23,16,05,11.90
2007,04,23,16,06,11.90
2007,04,23,16,07,11.80
2007,04,23,16,08,11.80
2007,04,23,16,09,11.80
2007,04,23,16,10,11.80
2007,04,23,16,11,11.80
2007,04,23,16,12,11.80
2007,04,23,16,13,11.80
2007,04,23,16,14,11.80
2007,04,23,16,15,11.80
2007,04,23,16,16,11.90
2007,04,23,16,17,11.90
2007,04,23,16,18,11.90
2007,04,23,16,19,11.90
2007,04,23,16,20,11.90
2007,04,23,16,21,12.00
2007,04,23,16,22,12.00
2007,04,23,16,23,12.10
2007,04,23,16,24,12.20
2007,04,23,16,25,12.30
2007,04,23,16,26,12.40
2007,04,23,16,27,12.50
2007,04,23,16,28,12.50
2007,04,23,16,29,12.50
2007,04,23,16,30,12.60
2007,04,23,16,31,12.70
2007,04,23,16,32,12.80
2007,04,23,16,33,12.90
2007,04,23,16,34,13.00
2007,04,23,16,35,13.10
2007,04,23,16,36,13.20
2007,04,23,16,37,13.40
2007,04,23,16,38,13.50
2007,04,23,16,39,13.50
2007,04,23,16,40,13.50
2007,04,23,16,41,13.50
2007,04,23,16,42,13.50
2007,04,23,16,43,13.50
2007,04,23,16,44,13.50
2007,04,23,16,45,13.50
2007,04,23,16,46,13.40
2007,04,23,16,47,13.40
2007,04,23,16,48,13.40
2007,04,23,16,49,13.40
2007,04,23,16,50,13.30
2007,04,23,16,51,13.30
2007,04,23,16,52,13.30
2007,04,23,16,53,13.30
2007,04,23,16,54,13.30
2007,04,23,16,55,13.30
2007,04,23,16,56,13.30
2007,04,23,16,57,13.30
2007,04,23,16,58,13.30
2007,04,23,16,59,13.40
2007,04,23,17,00,13.40
2007,04,23,17,01,13.40
2007,04,23,17,02,13.50
2007,04,23,17,03,13.50
2007,04,23,17,04,13.60
2007,04,23,17,05,13.60
2007,04,23,17,06,13.60
2007,04,23,17,07,13.60
2007,04,23,17,08,13.60
2007,04,23,17,09,13.60
2007,04,23,17,10,13.60
2007,04,23,17,11,13.60
2007,04,23,17,12,13.60
2007,04,23,17,13,13.60
2007,04,23,17,14,13.60
2007,04,23,17,15,13.60
2007,04,23,17,16,13.70
2007,04,23,17,17,13.70
2007,04,23,17,18,13.70
2007,04,23,17,19,13.70
2007,04,23,17,20,13.70
2007,04,23,17,21,13.80
2007,04,23,17,22,13.80
2007,04,23,17,23,13.80
2007,04,23,17,24,13.70
2007,04,23,17,25,13.70
2007,04,23,17,26,13.70
2007,04,23,17,27,13.70
2007,04,23,17,28,13.70
2007,04,23,17,29,13.70
2007,04,23,17,30,13.70
2007,04,23,17,31,13.60
2007,04,23,17,32,13.60
2007,04,23,17,33,13.50
2007,04,23,17,34,13.50
2007,04,23,17,35,13.50
2007,04,23,17,36,13.50
2007,04,23,17,37,13.50
2007,04,23,17,38,13.40
2007,04,23,17,39,13.40
2007,04,23,17,40,13.40
2007,04,23,17,41,13.30
2007,04,23,17,42,13.30
2007,04,23,17,43,13.30
2007,04,23,17,44,13.30